This demonstration page uses our WeatherBlox Daily Observations layout. Learn more.

Left ArrowRight Arrow

39.92423, -83.80882

Hourly Observations for February 16, 2021

Temp ( °F °C ) Dew Point ( °F °C ) Humidity (%) Winds ( mph kmh ) Pressure ( in mb ) Visibility ( mi km ) Precip ( " mm )
12:05 am 00:05 Cloudy with Light Snow 16 -9 16 -9 100 100 NW 15 24 29.79 1009 1 2 0.00 0.00
12:12 am 00:12 Cloudy with Light Snow 16 -9 16 -9 100 100 NW 15 24 29.79 1009 1 1 0.00 0.00
12:27 am 00:27 Cloudy with Light Snow 16 -9 16 -9 100 100 NW 15 24 29.77 1008 1 2 0.00 0.00
12:32 am 00:32 Cloudy with Light Snow 16 -9 14 -10 93 93 N 14 22 29.77 1008 2 3 0.00 0.00
12:36 am 00:36 Cloudy with Light Snow 16 -9 14 -10 93 93 NNW 15 24 29.77 1008 3 5 0.00 0.00
12:56 am 00:56 Mostly Cloudy with Light Snow 15 -9.4 13 -10.6 91 91 NNW 15 24 29.73 1007 8 13 0.00 0.00
1:56 am 01:56 Cloudy 16 -8.9 14 -10 92 92 NNW 15 24 29.74 1007 10 16 0.00 0.00
2:56 am 02:56 Cloudy with Light Snow 16 -8.9 14 -10 92 92 N 14 22 29.75 1007 9 14 0.00 0.00
3:25 am 03:25 Cloudy 16 -9 12 -11 86 86 NNW 10 17 29.81 1010 10 16 0.00 0.00
3:56 am 03:56 Cloudy with Light Snow 16 -8.9 13 -10.6 88 88 NNW 10 17 29.77 1008 9 14 0.00 0.00
4:56 am 04:56 Cloudy with Light Snow 16 -8.9 12 -11.1 84 84 NW 7 11 29.81 1009 9 14 0.00 0.00
5:56 am 05:56 Cloudy with Light Snow 15 -9.4 13 -10.6 91 91 WNW 9 15 29.83 1010 5 8 0.00 0.00
6:56 am 06:56 Cloudy with Light Snow 14 -10 13 -10.6 95 95 W 12 19 29.87 1012 6 10 0.00 0.00
7:27 am 07:27 Cloudy with Light Snow 12 -11 12 -11 100 100 W 12 19 29.93 1014 4 6 0.00 0.00
7:53 am 07:53 Cloudy with Light Snow 12 -11 10 -12 92 92 WNW 10 17 29.95 1014 3 5 0.00 0.00
7:56 am 07:56 Cloudy with Light Snow 13 -10.6 11 -11.7 92 92 WNW 12 19 29.91 1013 4 6 0.00 0.00
8:11 am 08:11 Cloudy with Light Snow 12 -11 10 -12 92 92 WNW 10 17 29.96 1015 2 3 0.00 0.00
8:56 am 08:56 Cloudy with Light Snow 13 -10.6 11 -11.7 92 92 WNW 12 19 29.94 1014 3 4 0.00 0.00
9:33 am 09:33 Cloudy with Light Snow 12 -11 10 -12 92 92 WNW 15 24 29.99 1016 2 3 0.00 0.00
9:56 am 09:56 Cloudy with Light Snow 13 -10.6 9 -12.8 84 84 W 15 24 29.97 1015 3 4 0.00 0.00
10:05 am 10:05 Cloudy with Light Snow 12 -11 9 -13 85 85 W 14 22 30.01 1016 5 8 0.00 0.00
10:38 am 10:38 Mostly Cloudy with Light Snow 14 -10 9 -13 79 79 W 13 20 30.02 1017 9 14 0.00 0.00
10:56 am 10:56 Mostly Cloudy with Light Snow 15 -9.4 9 -12.8 77 77 W 10 17 29.99 1016 8 13 0.00 0.00
11:05 am 11:05 Cloudy with Light Snow 16 -9 9 -13 73 73 W 13 20 30.02 1017 2 3 0.00 0.00
11:15 am 11:15 Cloudy with Light Snow 14 -10 9 -13 79 79 WNW 12 19 30.04 1017 9 14 0.00 0.00
11:54 am 11:54 Mostly Cloudy with Light Snow 16 -9 9 -13 73 73 WNW 12 19 30.05 1018 9 14 0.00 0.00
11:56 am 11:56 Mostly Cloudy with Light Snow 15 -9.4 8 -13.3 74 74 W 12 19 30.02 1017 9 14 0.00 0.00
12:05 pm 12:05 Mostly Cloudy with Light Snow 16 -9 9 -13 73 73 W 12 19 30.06 1018 9 14 0.00 0.00
12:13 pm 12:13 Cloudy with Light Snow 16 -9 9 -13 73 73 WNW 14 22 30.06 1018 9 14 0.00 0.00
12:56 pm 12:56 Cloudy with Light Snow 16 -8.9 9 -12.8 74 74 W 14 22 30.04 1017 8 13 0.00 0.00
1:56 pm 13:56 Cloudy with Light Snow 17 -8.3 10 -12.2 74 74 W 17 28 30.08 1019 2 2 0.00 0.00
1:59 pm 13:59 Cloudy with Light Snow 18 -8 10 -12 73 73 W 18 30 30.11 1020 1 1 0.00 0.00
2:11 pm 14:11 Cloudy with Light Snow 18 -8 10 -12 73 73 W 18 30 30.11 1020 3 5 0.00 0.00
2:56 pm 14:56 Cloudy with Light Snow 18 -7.8 9 -12.8 68 68 W 16 26 30.10 1019 9 14 0.00 0.00
3:56 pm 15:56 Partly Cloudy with Scattered Snow Showers 17 -8.3 10 -12.2 74 74 WNW 12 19 30.12 1020 9 14 0.00 0.00
4:44 pm 16:44 Mostly Cloudy with Light Snow 18 -8 10 -12 73 73 W 14 22 30.19 1022 9 14 0.00 0.00
4:56 pm 16:56 Cloudy with Light Snow 17 -8.3 10 -12.2 74 74 W 16 26 30.17 1022 9 14 0.00 0.00
5:24 pm 17:24 Partly Cloudy with Scattered Snow Showers 16 -9 9 -13 73 73 W 15 24 30.21 1023 9 14 0.00 0.00
5:56 pm 17:56 Sunny 16 -8.9 8 -13.3 71 71 WNW 13 20 30.20 1023 10 16 0.00 0.00
6:56 pm 18:56 Clear 12 -11.1 6 -14.4 77 77 W 8 13 30.24 1024 10 16 0.00 0.00
7:56 pm 19:56 Clear 11 -11.7 6 -14.4 81 81 WNW 8 13 30.26 1025 10 16 0.00 0.00
8:56 pm 20:56 Clear 11 -11.7 8 -13.3 88 88 SW 3 6 30.26 1025 10 16 0.00 0.00
9:56 pm 21:56 Clear 7 -13.9 6 -14.4 96 96 WSW 5 7 30.29 1026 10 16 0.00 0.00
10:56 pm 22:56 Clear 5 -15 4 -15.6 95 95 SSW 5 7 30.32 1027 10 16 0.00 0.00
11:56 pm 23:56 Clear -1 -18.3 -3 -19.4 91 91 Calm 30.30 1026 10 16 0.00 0.00

Powered by AerisWeather